Location: Devore Heights
(34.2372°N, 117.4156°W)
Time: 00:38:39
(UTC+00:00)

Altair - Pass Details

Date: 19 September 2024
Orbit: 1501 x 1682 km, 47.2° (Epoch: 09 October)

Event Time Altitude Azimuth Distance (km) Brightness Sun altitude
Exits shadow 08:05:38 18° 63° (ENE) 3,328 9.4 -54.1°
Drops below altitude 10° 08:07:40 10° 59° (ENE) 3,929 9.9 -54.1°
Sets 08:10:55 0° 56° (ENE) 4,930 10.5 -53.9°
